Voltar ao catálogo

FENGYUN 1C DEB

AtivoSSO
NORAD 32187·DEBRIS·🇨🇳 China

Lançado May 10, 1999 de Taiyuan Satellite Launch Center

Loading…

Próximas Passagens (próximas 24 horas)

TLE

AtualizadoSource: Space-Track

Época: Sep 12, 2026, 10:29 UTC

1 32187U 99025CUH 26255.43714388  .00000262  00000-0  36136-3 0  9996
2 32187  99.4818 327.1841 0293276 179.9926 246.0373 13.50651084699530

Acompanhe FENGYUN 1C DEB em tempo real com AllMySat

Download on the App Store